Location: Dattensoll
(49.9928°N, 9.8954°E)
Time: 00:22:28
(UTC+00:00)

Cosmos 1933 - Pass Details

Date: 19 May 2025
Orbit: 516 x 523 km, 82.5° (Epoch: 22 June)

Event Time Altitude Azimuth Distance (km) Brightness Sun altitude
Rises 19:58:31 0° 186° (S) 2,642 6.4 -7.5°
Reaches altitude 10° 20:00:39 10° 185° (S) 1,757 5.5 -7.7°
Maximum altitude 20:04:30 81° 99° (E) 536 3.2 -8.2°
Drops below altitude 10° 20:08:23 10° 12° (NNE) 1,768 6.4 -8.6°
Sets 20:10:32 0° 11° (NNE) 2,660 7.3 -8.8°
